• en Suisse
  • Liste des pays
  • À 7 jours
  • Température de l'eau
  • Carte satellitaire
  • Carte météo
  • Widgets météo
  • user-avatar
    Se connecter

    Météo par heure à Spasskoe

    Ce jour, 19 Août, Dimanche

    Heure Température Précipitation Vent Pression Humidité
    00:00 +15°C° 0 mm 2 m/s 750 mmHg 76%
    01:00 +15°C° 0 mm 2 m/s 750 mmHg 78%
    02:00 +14°C° 0 mm 2 m/s 750 mmHg 80%
    03:00 +14°C° 0 mm 2 m/s 750 mmHg 81%
    04:00 +14°C° 0 mm 2 m/s 750 mmHg 82%
    05:00 +14°C° 0 mm 2 m/s 750 mmHg 83%
    06:00 +16°C° 0 mm 2 m/s 750 mmHg 76%
    07:00 +18°C° 0 mm 3 m/s 749 mmHg 70%
    08:00 +21°C° 0 mm 3 m/s 749 mmHg 63%
    09:00 +22°C° 0 mm 3 m/s 749 mmHg 58%
    10:00 +25°C° 0 mm 4 m/s 749 mmHg 53%
    11:00 +26°C° 0 mm 4 m/s 749 mmHg 49%
    12:00 +26°C° 0 mm 4 m/s 748 mmHg 48%
    13:00 +27°C° 0 mm 4 m/s 748 mmHg 47%
    14:00 +27°C° 0 mm 4 m/s 747 mmHg 46%
    15:00 +27°C° 0 mm 4 m/s 747 mmHg 50%
    16:00 +26°C° 0 mm 4 m/s 746 mmHg 54%
    17:00 +26°C° 0 mm 3 m/s 746 mmHg 58%
    18:00 +24°C° 0,1 mm 3 m/s 746 mmHg 65%
    19:00 +21°C° 0,1 mm 3 m/s 746 mmHg 72%
    20:00 +20°C° 0,1 mm 3 m/s 746 mmHg 80%
    21:00 +19°C° 0 mm 3 m/s 746 mmHg 83%
    22:00 +18°C° 0 mm 3 m/s 745 mmHg 87%
    23:00 +18°C° 0 mm 2 m/s 745 mmHg 90%

    Demain, 20 Août, Lundi

    Heure Température Précipitation Vent Pression Humidité
    00:00 +18°C° 0 mm 2 m/s 745 mmHg 92%
    01:00 +17°C° 0 mm 2 m/s 745 mmHg 94%
    02:00 +17°C° 0 mm 2 m/s 745 mmHg 96%
    03:00 +16°C° 0 mm 2 m/s 745 mmHg 96%
    04:00 +16°C° 0 mm 2 m/s 745 mmHg 97%
    05:00 +16°C° 0 mm 1 m/s 745 mmHg 97%
    06:00 +18°C° 0 mm 1 m/s 745 mmHg 89%
    07:00 +20°C° 0 mm 1 m/s 745 mmHg 82%
    08:00 +21°C° 0 mm 1 m/s 746 mmHg 74%
    09:00 +21°C° 0 mm 2 m/s 745 mmHg 68%
    10:00 +23°C° 0 mm 2 m/s 745 mmHg 62%
    11:00 +24°C° 0 mm 2 m/s 745 mmHg 57%
    12:00 +25°C° 0,2 mm 2 m/s 745 mmHg 57%
    13:00 +25°C° 0,2 mm 3 m/s 744 mmHg 57%
    14:00 +26°C° 0,2 mm 3 m/s 744 mmHg 57%
    15:00 +25°C° 0,2 mm 3 m/s 744 mmHg 61%
    16:00 +24°C° 0,2 mm 2 m/s 744 mmHg 66%
    17:00 +24°C° 0,2 mm 2 m/s 743 mmHg 71%
    18:00 +23°C° 0,2 mm 2 m/s 743 mmHg 76%
    19:00 +20°C° 0,2 mm 2 m/s 743 mmHg 80%
    20:00 +20°C° 0,2 mm 1 m/s 743 mmHg 85%
    21:00 +19°C° 0 mm 2 m/s 742 mmHg 86%
    22:00 +18°C° 0 mm 2 m/s 742 mmHg 87%
    23:00 +18°C° 0 mm 2 m/s 742 mmHg 89%

    Après-demain, 21 Août, Mardi

    Heure Température Précipitation Vent Pression Humidité
    00:00 +18°C° 0 mm 2 m/s 741 mmHg 90%
    01:00 +18°C° 0 mm 3 m/s 741 mmHg 90%
    02:00 +17°C° 0 mm 3 m/s 740 mmHg 91%
    03:00 +17°C° 0 mm 3 m/s 740 mmHg 91%
    04:00 +17°C° 0 mm 4 m/s 739 mmHg 90%
    05:00 +17°C° 0 mm 4 m/s 739 mmHg 90%
    06:00 +19°C° 0 mm 5 m/s 738 mmHg 84%
    07:00 +20°C° 0 mm 5 m/s 738 mmHg 78%
    08:00 +21°C° 0 mm 6 m/s 737 mmHg 72%
    09:00 +21°C° 0,7 mm 6 m/s 737 mmHg 75%
    10:00 +21°C° 0,7 mm 7 m/s 737 mmHg 78%
    11:00 +21°C° 0,7 mm 7 m/s 737 mmHg 81%
    12:00 +21°C° 0,5 mm 7 m/s 737 mmHg 78%
    13:00 +20°C° 0,5 mm 6 m/s 737 mmHg 74%
    14:00 +20°C° 0,5 mm 6 m/s 738 mmHg 71%
    15:00 +19°C° 0 mm 6 m/s 738 mmHg 66%
    16:00 +19°C° 0 mm 5 m/s 739 mmHg 62%
    17:00 +19°C° 0 mm 5 m/s 739 mmHg 57%
    18:00 +17°C° 0 mm 4 m/s 739 mmHg 62%
    19:00 +15°C° 0 mm 4 m/s 740 mmHg 67%
    20:00 +14°C° 0 mm 3 m/s 740 mmHg 72%
    21:00 +13°C° 0 mm 3 m/s 740 mmHg 73%
    22:00 +13°C° 0 mm 3 m/s 741 mmHg 75%
    23:00 +12°C° 0 mm 4 m/s 741 mmHg 77%

    22 Août, Mercredi

    Heure Température Précipitation Vent Pression Humidité
    00:00 +12°C° 0 mm 4 m/s 741 mmHg 78%
    01:00 +11°C° 0 mm 4 m/s 741 mmHg 79%
    02:00 +11°C° 0 mm 4 m/s 742 mmHg 80%
    03:00 +10°C° 0 mm 4 m/s 742 mmHg 79%
    04:00 +10°C° 0 mm 4 m/s 742 mmHg 78%
    05:00 +10°C° 0 mm 4 m/s 743 mmHg 77%
    06:00 +10°C° 0 mm 5 m/s 743 mmHg 72%
    07:00 +12°C° 0 mm 5 m/s 744 mmHg 66%
    08:00 +14°C° 0 mm 6 m/s 744 mmHg 60%
    09:00 +14°C° 0 mm 6 m/s 745 mmHg 57%
    10:00 +15°C° 0 mm 6 m/s 745 mmHg 55%
    11:00 +16°C° 0 mm 5 m/s 745 mmHg 52%
    12:00 +16°C° 0 mm 5 m/s 746 mmHg 50%
    13:00 +16°C° 0 mm 5 m/s 746 mmHg 49%
    14:00 +17°C° 0 mm 5 m/s 747 mmHg 47%
    15:00 +17°C° 0 mm 5 m/s 747 mmHg 49%
    16:00 +17°C° 0 mm 4 m/s 747 mmHg 51%
    17:00 +17°C° 0 mm 4 m/s 748 mmHg 53%
    18:00 +14°C° 0 mm 3 m/s 748 mmHg 59%
    19:00 +13°C° 0 mm 3 m/s 748 mmHg 65%
    20:00 +12°C° 0 mm 2 m/s 749 mmHg 71%
    21:00 +10°C° 0 mm 2 m/s 749 mmHg 72%
    22:00 +10°C° 0 mm 2 m/s 749 mmHg 74%
    23:00 +9°C° 0 mm 2 m/s 750 mmHg 76%

    23 Août, Jeudi

    Heure Température Précipitation Vent Pression Humidité
    00:00 +9°C° 0 mm 2 m/s 750 mmHg 77%
    01:00 +8°C° 0 mm 2 m/s 750 mmHg 78%
    02:00 +8°C° 0 mm 2 m/s 750 mmHg 79%
    03:00 +8°C° 0 mm 2 m/s 750 mmHg 80%
    04:00 +8°C° 0 mm 2 m/s 751 mmHg 80%
    05:00 +8°C° 0 mm 2 m/s 751 mmHg 81%
    06:00 +10°C° 0 mm 2 m/s 751 mmHg 74%
    07:00 +13°C° 0 mm 2 m/s 751 mmHg 66%
    08:00 +15°C° 0 mm 2 m/s 751 mmHg 59%
    09:00 +17°C° 0 mm 3 m/s 751 mmHg 54%
    10:00 +18°C° 0 mm 3 m/s 751 mmHg 50%
    11:00 +20°C° 0 mm 3 m/s 750 mmHg 45%
    12:00 +20°C° 0 mm 3 m/s 750 mmHg 44%
    13:00 +21°C° 0 mm 3 m/s 750 mmHg 44%
    14:00 +21°C° 0 mm 4 m/s 750 mmHg 43%
    15:00 +21°C° 0 mm 3 m/s 749 mmHg 47%
    16:00 +20°C° 0 mm 3 m/s 749 mmHg 50%
    17:00 +20°C° 0 mm 3 m/s 749 mmHg 53%
    18:00 +18°C° 0 mm 3 m/s 749 mmHg 60%
    19:00 +16°C° 0 mm 2 m/s 749 mmHg 66%
    20:00 +14°C° 0 mm 2 m/s 749 mmHg 72%
    21:00 +14°C° 0 mm 2 m/s 749 mmHg 74%
    22:00 +13°C° 0 mm 2 m/s 749 mmHg 76%
    23:00 +13°C° 0 mm 2 m/s 749 mmHg 77%

    24 Août, Vendredi

    Heure Température Précipitation Vent Pression Humidité
    00:00 +12°C° 0 mm 2 m/s 749 mmHg 80%
    01:00 +12°C° 0 mm 2 m/s 749 mmHg 82%
    02:00 +12°C° 0 mm 2 m/s 749 mmHg 85%
    03:00 +10°C° 0 mm 2 m/s 749 mmHg 86%
    04:00 +10°C° 0 mm 2 m/s 749 mmHg 87%
    05:00 +10°C° 0 mm 2 m/s 749 mmHg 89%
    06:00 +13°C° 0 mm 2 m/s 749 mmHg 81%
    07:00 +15°C° 0 mm 2 m/s 749 mmHg 74%
    08:00 +17°C° 0 mm 2 m/s 749 mmHg 66%
    09:00 +19°C° 0 mm 2 m/s 749 mmHg 61%
    10:00 +21°C° 0 mm 3 m/s 749 mmHg 55%
    11:00 +22°C° 0 mm 3 m/s 749 mmHg 50%
    12:00 +24°C° 0 mm 3 m/s 749 mmHg 48%
    13:00 +24°C° 0 mm 3 m/s 749 mmHg 47%
    14:00 +25°C° 0 mm 2 m/s 749 mmHg 45%
    15:00 +24°C° 0 mm 2 m/s 748 mmHg 49%
    16:00 +24°C° 0 mm 2 m/s 748 mmHg 52%
    17:00 +23°C° 0 mm 2 m/s 748 mmHg 56%
    18:00 +20°C° 0 mm 2 m/s 748 mmHg 62%
    19:00 +18°C° 0 mm 2 m/s 748 mmHg 68%
    20:00 +16°C° 0 mm 1 m/s 748 mmHg 74%
    21:00 +16°C° 0 mm 2 m/s 748 mmHg 76%
    22:00 +15°C° 0 mm 2 m/s 748 mmHg 78%
    23:00 +14°C° 0 mm 2 m/s 748 mmHg 80%
    Voir plus